Location: Aalsum
(53.3404°N, 6.0062°E)
Time: 09:34:39
(UTC+00:00)

COSMOS 2455 - Pass Details

Date: 28 January 2023
Orbit: 898 x 911 km, 67.1° (Epoch: 19 March)

Event Time Altitude Azimuth Distance (km) Brightness Sun altitude
Rises 20:02:53 0° 257° (WSW) 3,527 6.7 -34.2°
Reaches altitude 10° 20:05:38 10° 267° (W) 2,591 5.9 -34.6°
Maximum altitude 20:11:04 34° 331° (NNW) 1,464 4.2 -35.4°
Enters shadow 20:11:22 34° 337° (NNW) 1,469 4.1 -35.4°
